OK1VCF-8 Weather Reports


Display with metric or nautical units.
time (UTC)temp
F
wind
direction
speed
MPH
gust
MPH
rain 1hr
in
rain 24hr
in
rain mn
in
humidity
%
barometer
mb
20210125155810 33 0 0.0 0.0 0.00 0.00 0.00 76 1004.8
20210125155051 34 0 0.0 0.0 0.00 0.00 0.00 76 1004.8
20210125154336 34 0 0.0 0.0 0.00 0.00 0.00 74 1004.6
20210125153618 34 0 0.0 0.0 0.00 0.00 0.00 74 1004.5
20210125152907 34 0 0.0 0.0 0.00 0.00 0.00 72 1004.2
20210125152144 35 0 0.0 0.0 0.00 0.00 0.00 70 1004.2
20210125151425 36 0 0.0 0.0 0.00 0.00 0.00 68 1004.0
20210125150716 36 0 0.0 0.0 0.00 0.00 0.00 68 1004.0
20210125145951 36 0 0.0 0.0 0.00 0.00 0.00 66 1003.8
20210125145235 36 0 0.0 0.0 0.00 0.00 0.00 64 1003.8
20210125144529 36 0 0.0 0.0 0.00 0.00 0.00 62 1003.6
20210125143758 36 0 0.0 0.0 0.00 0.00 0.00 62 1003.6
20210125141617 36 0 0.0 0.0 0.00 0.00 0.00 62 1003.2
20210125140613 36 0 0.0 0.0 0.00 0.00 0.00 62 1003.1
20210125135855 36 0 0.0 0.0 0.00 0.00 0.00 62 1003.1
20210125135141 36 0 0.0 0.0 0.00 0.00 0.00 61 1003.0
20210125134423 37 0 0.0 0.0 0.00 0.00 0.00 61 1002.9
20210125133708 37 0 0.0 0.0 0.00 0.00 0.00 60 1002.8
20210125132950 38 0 0.0 0.0 0.00 0.00 0.00 60 1002.8
20210125132235 38 0 0.0 0.0 0.00 0.00 0.00 60 1002.8
20210125131450 38 0 0.0 0.0 0.00 0.00 0.00 58 1002.6
20210125130643 38 0 0.0 0.0 0.00 0.00 0.00 60 1002.6
20210125125749 38 0 0.0 0.0 0.00 0.00 0.00 64 1002.6
20210125124833 37 0 0.0 0.0 0.00 0.00 0.00 65 1002.4
20210125123838 38 0 0.0 0.0 0.00 0.00 0.00 67 1002.6
20210125122700 37 0 0.0 0.0 0.00 0.00 0.00 68 1002.6
20210125115525 37 0 0.0 0.0 0.00 0.00 0.00 70 1002.4
20210125114648 38 0 0.0 0.0 0.00 0.00 0.00 69 1002.5
20210125113846 38 0 0.0 0.0 0.00 0.00 0.00 70 1002.5
20210125113119 37 0 0.0 0.0 0.00 0.00 0.00 70 1002.4
20210125112336 38 0 0.0 0.0 0.00 0.00 0.00 68 1002.4
20210125111614 38 0 0.0 0.0 0.00 0.00 0.00 66 1002.4
20210125110850 38 0 0.0 0.0 0.00 0.00 0.00 67 1002.3
20210125110130 38 0 0.0 0.0 0.00 0.00 0.00 68 1002.4
20210125105410 37 0 0.0 0.0 0.00 0.00 0.00 68 1002.4
20210125104653 37 0 0.0 0.0 0.00 0.00 0.00 68 1002.4
20210125103932 37 0 0.0 0.0 0.00 0.00 0.00 69 1002.5
20210125103231 37 0 0.0 0.0 0.00 0.00 0.00 70 1002.6
20210125102500 37 0 0.0 0.0 0.00 0.00 0.00 70 1002.4
20210125101742 36 0 0.0 0.0 0.00 0.00 0.00 70 1002.4
20210125101032 36 0 0.0 0.0 0.00 0.00 0.00 71 1002.4
20210125100054 36 0 0.0 0.0 0.00 0.00 0.00 72 1002.4
20210125095314 36 0 0.0 0.0 0.00 0.00 0.00 74 1002.6
20210125094556 36 0 0.0 0.0 0.00 0.00 0.00 74 1002.4
20210125093836 36 0 0.0 0.0 0.00 0.00 0.00 77 1002.4
20210125093120 35 0 0.0 0.0 0.00 0.00 0.00 78 1002.3
20210125092406 34 0 0.0 0.0 0.00 0.00 0.00 79 1002.3
20210125091649 34 0 0.0 0.0 0.00 0.00 0.00 78 1002.3
20210125090932 34 0 0.0 0.0 0.00 0.00 0.00 78 1002.2
20210125090216 36 0 0.0 0.0 0.00 0.00 0.00 78 1002.1
20210125085459 34 0 0.0 0.0 0.00 0.00 0.00 81 1002.0
20210125084741 34 0 0.0 0.0 0.00 0.00 0.00 83 1002.0
20210125084029 32 0 0.0 0.0 0.00 0.00 0.00 86 1001.8
20210125083311 32 0 0.0 0.0 0.00 0.00 0.00 86 1001.8
20210125082555 32 0 0.0 0.0 0.00 0.00 0.00 85 1001.8
20210125081839 32 0 0.0 0.0 0.00 0.00 0.00 84 1001.8
20210125080836 32 0 0.0 0.0 0.00 0.00 0.00 84 1001.6
20210125080121 33 0 0.0 0.0 0.00 0.00 0.00 84 1001.7
20210125075403 33 0 0.0 0.0 0.00 0.00 0.00 84 1001.7
20210125074646 33 0 0.0 0.0 0.00 0.00 0.00 84 1001.5
20210125073930 33 0 0.0 0.0 0.00 0.00 0.00 84 1001.5
20210125073214 33 0 0.0 0.0 0.00 0.00 0.00 85 1001.4
20210125072456 33 0 0.0 0.0 0.00 0.00 0.00 86 1001.4
20210125071727 32 0 0.0 0.0 0.00 0.00 0.00 87 1001.2
20210125070935 32 0 0.0 0.0 0.00 0.00 0.00 88 1001.3
20210125070116 32 0 0.0 0.0 0.00 0.00 0.00 88 1001.2
20210125065220 32 0 0.0 0.0 0.00 0.00 0.00 88 1001.2
20210125064317 32 0 0.0 0.0 0.00 0.00 0.00 88 1001.0
20210125063409 32 0 0.0 0.0 0.00 0.00 0.00 88 1000.9
20210125062455 32 0 0.0 0.0 0.00 0.00 0.00 88 1000.6
20210125061537 32 0 0.0 0.0 0.00 0.00 0.00 88 1000.6
20210125060211 32 0 0.0 0.0 0.00 0.00 0.00 88 1000.5
20210125055220 33 0 0.0 0.0 0.00 0.00 0.00 87 1000.4
20210125054350 33 0 0.0 0.0 0.00 0.00 0.00 87 1000.4
20210125053636 34 0 0.0 0.0 0.00 0.00 0.00 86 1000.3
20210125052911 33 0 0.0 0.0 0.00 0.00 0.00 86 1000.2
20210125052152 34 0 0.0 0.0 0.00 0.00 0.00 86 1000.1
20210125051433 34 0 0.0 0.0 0.00 0.00 0.00 87 1000.2
20210125050715 34 0 0.0 0.0 0.00 0.00 0.00 87 1000.1
20210125045958 34 0 0.0 0.0 0.00 0.00 0.00 86 1000.0
20210125045245 34 0 0.0 0.0 0.00 0.00 0.00 86 1000.1
20210125044539 34 0 0.0 0.0 0.00 0.00 0.00 84 1000.0
20210125043812 36 0 0.0 0.0 0.00 0.00 0.00 84 1000.0
20210125043057 36 0 0.0 0.0 0.00 0.00 0.00 86 1000.0
20210125042341 35 0 0.0 0.0 0.00 0.00 0.00 86 1000.0
20210125041629 34 0 0.0 0.0 0.00 0.00 0.00 86 1000.0
20210125040627 34 0 0.0 0.0 0.00 0.00 0.00 84 999.8
20210125035909 34 0 0.0 0.0 0.00 0.00 0.00 86 999.8
20210125035156 34 0 0.0 0.0 0.00 0.00 0.00 86 999.8
20210125034436 34 0 0.0 0.0 0.00 0.00 0.00 86 999.8
20210125033728 34 0 0.0 0.0 0.00 0.00 0.00 85 999.7
20210125033024 34 0 0.0 0.0 0.00 0.00 0.00 84 999.8
20210125032307 34 0 0.0 0.0 0.00 0.00 0.00 85 999.8
20210125031535 34 0 0.0 0.0 0.00 0.00 0.00 84 999.8
20210125030814 34 0 0.0 0.0 0.00 0.00 0.00 84 999.8
20210125030056 34 0 0.0 0.0 0.00 0.00 0.00 84 1000.0
20210125025340 35 0 0.0 0.0 0.00 0.00 0.00 84 1000.0
20210125024624 35 0 0.0 0.0 0.00 0.00 0.00 84 1000.0
20210125023908 34 0 0.0 0.0 0.00 0.00 0.00 84 1000.0
20210125023153 34 0 0.0 0.0 0.00 0.00 0.00 84 999.8
20210125022436 34 0 0.0 0.0 0.00 0.00 0.00 84 1000.0
20210125021438 34 0 0.0 0.0 0.00 0.00 0.00 86 1000.0
20210125020726 34 0 0.0 0.0 0.00 0.00 0.00 86 1000.0
20210125020021 34 0 0.0 0.0 0.00 0.00 0.00 85 999.9
20210125015249 34 0 0.0 0.0 0.00 0.00 0.00 85 999.8
20210125014519 34 0 0.0 0.0 0.00 0.00 0.00 84 999.8
20210125013752 34 0 0.0 0.0 0.00 0.00 0.00 84 1000.0
20210125013039 34 0 0.0 0.0 0.00 0.00 0.00 84 999.8
20210125012258 35 0 0.0 0.0 0.00 0.00 0.00 85 999.8
20210125011513 34 0 0.0 0.0 0.00 0.00 0.00 84 999.8
20210125010652 34 0 0.0 0.0 0.00 0.00 0.00 85 999.7
20210125005740 34 0 0.0 0.0 0.00 0.00 0.00 84 999.8
20210125004731 34 0 0.0 0.0 0.00 0.00 0.00 83 999.6
20210125003703 36 0 0.0 0.0 0.00 0.00 0.00 81 999.4
20210125000737 34 0 0.0 0.0 0.00 0.00 0.00 81 999.6
20210124235739 34 0 0.0 0.0 0.00 0.00 0.00 86 999.5
20210124234749 33 0 0.0 0.0 0.00 0.00 0.00 86 999.5
20210124233953 34 0 0.0 0.0 0.00 0.00 0.00 87 999.4
20210124233212 34 0 0.0 0.0 0.00 0.00 0.00 88 999.2
20210124232445 34 0 0.0 0.0 0.00 0.00 0.00 88 999.2
20210124231722 34 0 0.0 0.0 0.00 0.00 0.00 88 999.2
20210124231017 34 0 0.0 0.0 0.00 0.00 0.00 88 999.2
20210124230251 34 0 0.0 0.0 0.00 0.00 0.00 89 999.2
20210124225527 34 0 0.0 0.0 0.00 0.00 0.00 88 999.2
20210124224814 34 0 0.0 0.0 0.00 0.00 0.00 88 999.2
20210124224056 33 0 0.0 0.0 0.00 0.00 0.00 89 999.2
20210124223341 34 0 0.0 0.0 0.00 0.00 0.00 89 999.2
20210124222624 34 0 0.0 0.0 0.00 0.00 0.00 89 999.2
20210124221908 34 0 0.0 0.0 0.00 0.00 0.00 88 999.2
20210124220910 34 0 0.0 0.0 0.00 0.00 0.00 88 999.1
20210124220154 34 0 0.0 0.0 0.00 0.00 0.00 88 999.1
20210124215444 34 0 0.0 0.0 0.00 0.00 0.00 88 999.0
20210124214723 34 0 0.0 0.0 0.00 0.00 0.00 86 998.8
20210124214022 34 0 0.0 0.0 0.00 0.00 0.00 86 998.8
20210124213250 34 0 0.0 0.0 0.00 0.00 0.00 84 998.6
20210124212536 34 0 0.0 0.0 0.00 0.00 0.00 84 998.6
20210124211819 34 0 0.0 0.0 0.00 0.00 0.00 84 998.5
20210124211105 34 0 0.0 0.0 0.00 0.00 0.00 84 998.5
20210124210347 34 0 0.0 0.0 0.00 0.00 0.00 84 998.5
20210124205633 34 0 0.0 0.0 0.00 0.00 0.00 84 998.4
20210124204918 34 0 0.0 0.0 0.00 0.00 0.00 84 998.4
20210124204201 34 0 0.0 0.0 0.00 0.00 0.00 84 998.3
20210124203444 34 0 0.0 0.0 0.00 0.00 0.00 84 998.3
20210124202730 34 0 0.0 0.0 0.00 0.00 0.00 84 998.2
20210124201730 34 0 0.0 0.0 0.00 0.00 0.00 84 998.1
20210124201026 34 0 0.0 0.0 0.00 0.00 0.00 84 998.1
20210124200258 34 0 0.0 0.0 0.00 0.00 0.00 84 998.0
20210124195541 34 0 0.0 0.0 0.00 0.00 0.00 84 997.9
20210124194826 34 0 0.0 0.0 0.00 0.00 0.00 84 998.0
20210124194108 34 0 0.0 0.0 0.00 0.00 0.00 84 997.8
20210124193353 34 0 0.0 0.0 0.00 0.00 0.00 84 997.8
20210124192636 34 0 0.0 0.0 0.00 0.00 0.00 84 997.8
20210124191908 34 0 0.0 0.0 0.00 0.00 0.00 84 997.6
20210124191132 34 0 0.0 0.0 0.00 0.00 0.00 83 997.6
20210124190336 34 0 0.0 0.0 0.00 0.00 0.00 82 997.5
20210124185549 34 0 0.0 0.0 0.00 0.00 0.00 82 997.5
20210124184724 34 0 0.0 0.0 0.00 0.00 0.00 82 997.4
20210124183847 34 0 0.0 0.0 0.00 0.00 0.00 82 997.4
20210124183042 34 0 0.0 0.0 0.00 0.00 0.00 82 997.4
20210124180325 34 0 0.0 0.0 0.00 0.00 0.00 80 997.2
20210124173947 34 0 0.0 0.0 0.00 0.00 0.00 80 997.2
20210124173223 34 0 0.0 0.0 0.00 0.00 0.00 80 997.1
20210124172515 34 0 0.0 0.0 0.00 0.00 0.00 79 997.2
20210124171750 34 0 0.0 0.0 0.00 0.00 0.00 79 997.2
20210124171043 34 0 0.0 0.0 0.00 0.00 0.00 79 997.0
20210124164857 34 0 0.0 0.0 0.00 0.00 0.00 78 997.1
20210124164138 34 0 0.0 0.0 0.00 0.00 0.00 78 997.0
20210124163426 34 0 0.0 0.0 0.00 0.00 0.00 78 997.0
20210124162419 34 0 0.0 0.0 0.00 0.00 0.00 78 997.2
20210124161703 34 0 0.0 0.0 0.00 0.00 0.00 79 997.0
20210124160946 34 0 0.0 0.0 0.00 0.00 0.00 78 997.0
20210124160226 34 0 0.0 0.0 0.00 0.00 0.00 78 997.2